Location: Palomar Mountain Lodge
(33.3110°N, 116.8495°W)
Time: 15:03:51
(UTC-08:00)

SeaSat 1 - Pass Details

Date: 12 July 2018
Orbit: 744 x 747 km, 108.0° (Epoch: 11 November)

Event Time Altitude Azimuth Distance (km) Brightness Sun altitude
Rises 20:41:49 0° 21° (NNE) 3,186 5.9 -8.6°
Reaches altitude 10° 20:44:05 10° 20° (NNE) 2,259 5.1 -9.0°
Maximum altitude 20:48:59 73° 296° (WNW) 778 2.7 -9.9°
Drops below altitude 10° 20:53:51 10° 212° (SSW) 2,246 4.9 -10.7°
Sets 20:56:06 0° 211° (SSW) 3,166 5.6 -11.1°
